Location: Bemmer
(51.5498°N, 5.6249°E)
Time: 12:42:48
(UTC+00:00)

Cosmos 1536 - Pass Details

Date: 03 March 2021
Orbit: 541 x 557 km, 82.5° (Epoch: 17 April)

Event Time Altitude Azimuth Distance (km) Brightness Sun altitude
Exits shadow 19:46:11 29° 19° (NNE) 1,029 4.1 -23.0°
Drops below altitude 10° 19:48:13 10° 14° (NNE) 1,824 5.5 -23.3°
Sets 19:50:23 0° 13° (NNE) 2,720 6.5 -23.6°
